カタログに戻る

STARLINK-37034

運用中通信VLEO
NORAD 68171·PAYLOAD·🇺🇸 United States

打ち上げ Mar 14, 2026 から Vandenberg Space Force Base

Loading…

次のパス (今後24時間)

TLE

最新Source: CelesTrak SupGP

元期: Sep 14, 2026, 21:38 UTC

1 68171C 26050E   26257.90187500  .00007850  00000+0  23188-3 0  2579
2 68171  53.1568 103.9421 0001123  78.0246  75.9077 15.34392062    18

AllMySatでSTARLINK-37034をリアルタイム追跡

Download on the App Store